Location: Turtle Rock Observatory
(36.6913°N, 81.9708°W)
Time: 15:56:57
(UTC-04:00)

TITAN 4B R/B - Visible Passes

Search period start: 21 October 2014 00:00
Search period end: 31 October 2014 00:00
Orbit: 473 x 656 km, 57.0° (Epoch: 19 October)

Date Brightness Start Highest point End Pass type
(mag) Time Alt. Az. Time Alt. Az. Time Alt. Az.
22 Oct 3.2 07:12:01 10° NNW 07:15:40 29° NE 07:19:30 10° ESE visible
23 Oct 2.6 07:11:16 10° NNW 07:15:14 41° NE 07:19:25 10° ESE visible
24 Oct 4.2 05:33:24 10° NNE 05:34:34 11° NNE 05:35:45 10° NE visible
24 Oct 1.9 07:10:37 10° NW 07:14:45 62° NE 07:19:08 10° SE visible
25 Oct 3.9 05:32:47 13° N 05:34:17 15° NE 05:36:40 10° ENE visible
25 Oct 1.4 07:10:02 10° NW 07:14:13 87° SW 07:18:39 10° SE visible
26 Oct 3.6 05:32:47 18° NNE 05:33:56 20° NE 05:37:04 10° E visible
26 Oct 1.6 07:09:33 10° NW 07:13:39 56° SW 07:17:59 10° SSE visible
27 Oct 3.1 05:32:53 26° NNE 05:33:31 27° NE 05:37:11 10° E visible
27 Oct 2.2 07:09:12 10° WNW 07:13:03 36° SW 07:17:05 10° S visible
28 Oct 2.6 05:33:06 38° NE 05:33:06 38° NE 05:37:06 10° ESE visible
28 Oct 2.7 07:09:07 10° WNW 07:12:24 23° WSW 07:15:54 10° S visible
29 Oct 2.3 05:33:25 47° E 05:33:25 47° E 05:36:49 10° SE visible
29 Oct 3.2 07:09:26 11° W 07:11:43 15° WSW 07:14:15 10° SSW visible
30 Oct 2.8 05:33:49 34° SE 05:33:49 34° SE 05:36:21 10° SE visible
